Darbhanga Airport

Jump to: basic info | weather | runways | comments

Related pages: nearby airports | nearby navaids | notams | map

Basic information (top)

Codes: VE89
Location: lon 26.192801, lat 85.916901, elev 156 ft / 48 m msl
Status: small_airport

Weather (top)

Current conditions for Lok Nayak Jayaprakash Airport 58nm (107km) SW (rec'd 2015/02/27 14:50Z):

VEPT 271450Z 02002KT 4000 HZ FEW100 24/19 Q1009 NOSIG

Airport forecast for Lok Nayak Jayaprakash Airport 58nm (107km) SW (rec'd 2015/02/25 06:12Z):

TAF VEPT 250300Z 2506/2612 28004KT 2000 BR/HZ FEW020 SCT100 
      BECMG 2509/2511 3000 HZ 
      BECMG 2516/2518 00000KT 2000 BR/HZ NSC 
      BECMG 2520/2522 1500 BR 
      BECMG 2601/2603 0800 FG/MIFG 
      BECMG 2606/2608 28005KT 3000 HZ FEW020 SCT100

Runways (top)

10/28: 9,000 x 150 ft (2,743 x 46 m) — paved — not lighted

Latest comments (top)

re: Darbhanga Airport: Sir...i requested to bihar government ... [read]

Arrange Domestic Flight Delhi to Darbhanga: Dear Sir I am working in Abudhabi ... [read]

Requested all the concern person to start Darbhanga Airport: Dear Sir, as you know most of the ... [read]

Darbhanga Airport: Dear Sir, Kindly requested to Please, ... [read]

START DARBHANGA AIR PORT: I REQUESTE TO CENTRAL AND BIHAR ... [read]

See all 25 comments for Darbhanga Airport

More... (top)

See also NOTAMs and nearby airports and navaids, or visit the Darbhanga Airport page at the main OurAirports website..